CZ-6A DEB, 55008

Orbit data source: Space-Track

CZ-6A DEB, 55008 is space debris in SSO originally from a launch on Fri, 11 Nov 2022 UTC launched from the Taiyaun Space Center, China (TSC). Debris objects in space refer to the collection of defunct objects orbiting the Earth. Examples of debris include non-operational satellites, rocket bodies, and fragments generated from explosions, collisions, or faulty payload assembly.

Loading next visibility...
Identifier
55008, 2022-151UY
Orbit
SSO
Country
Flag of CNCN / PRC
Related business
Manufacturer
SAST
Mission
Spacecraft
Bus & Motor
Unknown
Mass
Unknown
Launch date (UTC)
2022-11-11 (4 years ago)
Launch vehicle
Unknown
Launch site
Taiyaun Space Center, China (TSC)
Object type
Payload
Rocket body
Debris
Shape & HBR
Unknown shape, 0.2 m
Radar Cross Section
Medium (>0.1 m² and <1 m²)

Expand to show TLE details & history
Last TLE update: 20 hours ago

TLE from 20 hours ago
0 CZ-6A DEB
1 55008U 22151UY  26262.77118853  .00000081  00000-0  67988-4 0  9998
2 55008  98.8504 266.9135 0042148  36.3050 324.0968 14.11593777198300
Epoch: 2026-09-19T18:30Z
TLE epoch observation values (Epoch: 2026-09-19T18:30:30.688Z)
Latitude
-0.00001°
Longitude
-9.38931°
Altitude
832.171 km
Speed
7.45 km/s
True Right ascension
17h 47m 39s
True Declination
0° 00' 00"
Sunlit
Object was in daylight at epoch
Visualization orbit readout
Latitude
Unknown
Longitude
Unknown
Altitude
Unknown
Speed
Unknown
Apparent Right ascension
Unknown
Apparent Declination
Unknown
Sunlit
N/A
Visualization observer readout
Local Sidereal Time
06:58:45
Azimuth
Unknown
Elevation
Unknown
Doppler factor
Unknown
Orbital elements
Apogee altitude
881.569 km
Perigee altitude
820.63 km
Semi-major axis
7,229.236 km
Eccentricity
0.00421
Inclination
98.8504°
RAAN
266.9135°
Arg. of periapsis
36.305°
True anomaly
323.81236°
Mean anomaly
324.0968°
Eccentric anomaly
323.9547°
Mean motion
3.53106 °/min
Orbital period
101.95 mins
BSTAR
0.000067988
Loading maneuver chart data...
Computing Atmospheric mass density...
Loading historical data...
Loading historical data...
Loading historical data...
Loading historical data...
Loading historical data...
Loading historical data...
Loading historical data...

Documentation

Showing up to 5 results
|